List of Smallville episodes

From Wikipedia, the free encyclopedia
Jump to: navigation, search
The Smallville intertitle and logo

Smallville is an American television series, which was developed by Alfred Gough and Miles Millar, based on the DC Comics character Superman. In the United States, the first episode of the series originally aired on October 16, 2001; the series finished its ten year run on May 13, 2011, with 218 episodes. The first five seasons were broadcast on The WB; following The WB's merger with UPN in September 2006, Smallville continued to be aired on the new, combined network, dubbed The CW.[1] All ten seasons are currently available on DVD in Regions 1, 2, and 4. Since the series premiered, it has averaged 4.47 million viewers per episode over its ten seasons.

Smallville follows the life of Clark Kent (Tom Welling), beginning when he is a teenager in the town of Smallville, Kansas, and continuing through high school, college, and his start at the Daily Planet before he adopts the "Superman" persona. As the series progresses, Clark Kent copes with his emerging superpowers (x-ray vision, super hearing, etc.), exploration of his extraterrestrial origins and discovering his true destiny. The series also deals with the people in Clark Kent's life: his human parents, Jonathan Kent (John Schneider) and Martha Kent (Annette O'Toole); his friends Chloe Sullivan (Allison Mack) and Pete Ross (Sam Jones III); his love interest for seven seasons Lana Lang (Kristin Kreuk); Chloe's cousin and Clark's love interest since season eight, Lois Lane (Erica Durance); and his friendship with Lex Luthor (Michael Rosenbaum) and how this gradually decays into their mutual enmity of legend.

Episodes[edit]

Season 1 (2001–02)[edit]

Main article: Smallville (season 1)
No. # Title Directed by Written by U.S. air date Production
code
U.S. viewers
(million)
1 1 "Pilot" David Nutter Alfred Gough & Miles Millar October 16, 2001 (2001-10-16) 475165 8.4[2]
2 2 "Metamorphosis" Michael Watkins & Philip Sgriccia Alfred Gough & Miles Millar October 24, 2001 (2001-10-24) 227601 7.3[3]
3 3 "Hothead" Greg Beeman Greg Walker October 31, 2001 (2001-10-31) 227603 6.0[3]
4 4 "X-Ray" James Frawley Mark Verheiden November 7, 2001 (2001-11-07) 227604 6.6[3]
5 5 "Cool" James A. Contner Michael Green November 14, 2001 (2001-11-14) 227605 5.9[3]
6 6 "Hourglass" Chris Long Doris Egan November 21, 2001 (2001-11-21) 227606 6.4[3]
7 7 "Craving" Philip Sgriccia Michael Green November 28, 2001 (2001-11-28) 227607 7.4[3]
8 8 "Jitters" Michael Watkins Cherie Bennett & Jeff Gottesfeld December 11, 2001 (2001-12-11) 227602 5.8[3]
9 9 "Rogue" David Carson Mark Verheiden January 15, 2002 (2002-01-15) 227608 5.8[3]
10 10 "Shimmer" D. J. Caruso Mark Verheiden & Michael Green January 29, 2002 (2002-01-29) 227609 7.0[3]
11 11 "Hug" Chris Long Doris Egan February 5, 2002 (2002-02-05) 227610 6.4[3]
12 12 "Leech" Greg Beeman Timothy Schlattmann February 12, 2002 (2002-02-12) 227611 6.1[3]
13 13 "Kinetic" Robert Singer Philip Levens February 26, 2002 (2002-02-26) 227612 6.2[3]
14 14 "Zero" Michael Katleman Alfred Gough & Miles Millar March 12, 2002 (2002-03-12) 227613 6.9[3]
15 15 "Nicodemus" James Marshall Michael Green March 19, 2002 (2002-03-19) 227614 6.7[3]
16 16 "Stray" Paul Shapiro Philip Levens April 16, 2002 (2002-04-16) 227615 6.0[3]
17 17 "Reaper" Terrence O'Hara Cameron Litvack April 23, 2002 (2002-04-23) 227616 5.5[3]
18 18 "Drone" Michael Katleman Michael Green & Philip Levens April 30, 2002 (2002-04-30) 227617 5.7[3]
19 19 "Crush" James Marshall Alfred Gough & Miles Millar May 7, 2002 (2002-05-07) 227618 6.4[3]
20 20 "Obscura" Terrence O'Hara Mark Verheiden & Michael Green May 14, 2002 (2002-05-14) 227619 6.1[3]
21 21 "Tempest" Greg Beeman Alfred Gough & Miles Millar May 21, 2002 (2002-05-21) 227620 6.0[3]

Season 2 (2002–03)[edit]

Main article: Smallville (season 2)
No. # Title Directed by Written by U.S. air date Production
code
U.S. viewers
(million)
22 1 "Vortex" Greg Beeman Philip Levens September 24, 2002 (2002-09-24) 175051 8.7[4]
23 2 "Heat" James Marshall Mark Verheiden October 1, 2002 (2002-10-01) 175052 8.1[4]
24 3 "Duplicity" Steve Miner Todd Slavkin & Darren Swimmer October 8, 2002 (2002-10-08) 175053 8.8[4]
25 4 "Red" Jeff Woolnough Jeph Loeb October 15, 2002 (2002-10-15) 175054 8.9[4]
26 5 "Nocturne" Rick Wallace Brian Peterson & Kelly Souders October 22, 2002 (2002-10-22) 175055 8.3[4]
27 6 "Redux" Chris Long Russel Friend & Garrett Lerner October 29, 2002 (2002-10-29) 227621 8.2[4]
28 7 "Lineage" Greg Beeman Alfred Gough & Miles Millar November 5, 2002 (2002-11-05) 175056 9.4[4]
29 8 "Ryan" Terrence O'Hara Philip Levens November 12, 2002 (2002-11-12) 175057 7.4[4]
30 9 "Dichotic" Craig Zisk Mark Verheiden November 19, 2002 (2002-11-19) 175058 8.3[4]
31 10 "Skinwalker" Marita Grabiak Mark Warshaw & Brian Peterson & Kelly Souders November 26, 2002 (2002-11-26) 175059 8.6[4]
32 11 "Visage" William Gereghty Todd Slavkin & Darren Swimmer January 14, 2003 (2003-01-14) 175060 7.3[4]
33 12 "Insurgence" James Marshall Kenneth Biller & Jeph Loeb January 21, 2003 (2003-01-21) 175062 6.6[4]
34 13 "Suspect" Greg Beeman Mark Verheiden & Philip Levens January 28, 2003 (2003-01-28) 175061 7.5[4]
35 14 "Rush" Rick Rosenthal Todd Slavkin & Darren Swimmer February 4, 2003 (2003-02-04) 175063 8.1[4]
36 15 "Prodigal" Greg Beeman Brian Peterson & Kelly Souders February 11, 2003 (2003-02-11) 175064 7.4[4]
37 16 "Fever" Bill Gereghty Matthew Okumura February 18, 2003 (2003-02-18) 175065 7.9[4]
38 17 "Rosetta" James Marshall Alfred Gough & Miles Millar February 25, 2003 (2003-02-25) 175066 8.7[4]
39 18 "Visitor" Rick Rosenthal Philip Levens April 15, 2003 (2003-04-15) 175067 5.9[4]
40 19 "Precipice" Thomas J. Wright Clint Carpenter April 22, 2003 (2003-04-22) 175068 6.7[4]
41 20 "Witness" Rick Wallace Mark Verheiden April 29, 2003 (2003-04-29) 175069 6.5[4]
42 21 "Accelerate" James Marshall Todd Slavkin & Darren Swimmer May 6, 2003 (2003-05-06) 175070 7.0[4]
43 22 "Calling" Terrence O'Hara Kenneth Biller May 13, 2003 (2003-05-13) 175071 7.1[4]
44 23 "Exodus" Greg Beeman Alfred Gough & Miles Millar May 20, 2003 (2003-05-20) 175072 7.5[4]

Season 3 (2003–04)[edit]

Main article: Smallville (season 3)
No. # Title Directed by Written by U.S. air date Production
code
U.S. viewers
(million)
45 1 "Exile" Greg Beeman Alfred Gough & Miles Millar October 1, 2003 (2003-10-01) 176201 6.80[5]
46 2 "Phoenix" James Marshall Kelly Souders & Brian Peterson October 8, 2003 (2003-10-08) 176202 6.70[5]
47 3 "Extinction" Michael Katleman Todd Slavkin & Darren Swimmer October 15, 2003 (2003-10-15) 176203 6.50[5]
48 4 "Slumber" Daniel Attias Drew Z. Greenberg October 22, 2003 (2003-10-22) 176204 6.90[5]
49 5 "Perry" Jeannot Szwarc Mark Verheiden October 29, 2003 (2003-10-29) 176205 6.70[5]
50 6 "Relic" Marita Grabiak Kelly Souders & Brian Peterson November 5, 2003 (2003-11-05) 176206 6.70[5]
51 7 "Magnetic" David Jackson Holly Harold November 12, 2003 (2003-11-12) 176207 6.90[5]
52 8 "Shattered" Ken Biller Ken Biller November 19, 2003 (2003-11-19) 176208 6.40[5]
53 9 "Asylum" Greg Beeman Todd Slavkin & Darren Swimmer January 14, 2004 (2004-01-14) 176209 5.60[5]
54 10 "Whisper" Tom Wright Ken Horton January 21, 2004 (2004-01-21) 176210 5.10[5]
55 11 "Delete" Pat Williams Kelly Souders & Brian Peterson January 28, 2004 (2004-01-28) 176211 5.50[5]
56 12 "Hereafter" Greg Beeman & James Marshall Mark Verheiden & Drew Greenberg February 4, 2004 (2004-02-04) 176212 5.30[5]
57 13 "Velocity" Jeannot Szwarc Todd Slavkin & Darren Swimmer February 11, 2004 (2004-02-11) 176213 5.00[5]
58 14 "Obsession" James Marshall Holly Harold February 18, 2004 (2004-02-18) 176214 5.33[6]
59 15 "Resurrection" Terrence O'Hara Todd Slavkin & Darren Swimmer February 25, 2004 (2004-02-25) 176215 4.97[7]
60 16 "Crisis" Ken Biller Kelly Souders & Brian Peterson March 3, 2004 (2004-03-03) 176216 5.26[8]
61 17 "Legacy" Greg Beeman Jeph Loeb April 14, 2004 (2004-04-14) 176217 4.48[9]
62 18 "Truth" James Marshall Drew Greenberg April 21, 2004 (2004-04-21) 176218 4.43[10]
63 19 "Memoria" Miles Millar Alfred Gough & Miles Millar April 28, 2004 (2004-04-28) 176219 4.32[11]
64 20 "Talisman" John Schneider Ken Biller May 5, 2004 (2004-05-05) 176220 4.72[12]
65 21 "Forsaken" Terrence O'Hara Kelly Souders & Brian Peterson May 12, 2004 (2004-05-12) 176221 4.54[13]
66 22 "Covenant" Greg Beeman Alfred Gough & Miles Millar May 19, 2004 (2004-05-19) 176222 5.92[14]

Season 4 (2004–05)[edit]

Main article: Smallville (season 4)
No. # Title Directed by Written by U.S. air date Production
code
U.S. viewers
(million)
67 1 "Crusade" Greg Beeman Alfred Gough & Miles Millar September 22, 2004 (2004-09-22) 2T5201 6.07[15]
68 2 "Gone" James Marshall Kelly Souders & Brian Peterson September 29, 2004 (2004-09-29) 2T5202 5.66[16]
69 3 "Façade" Pat Williams Holly Harold October 6, 2004 (2004-10-06) 2T5203 5.45[17]
70 4 "Devoted" David Carson Luke Schelhaas October 13, 2004 (2004-10-13) 2T5204 6.20[18]
71 5 "Run" David Barrett Steven S. DeKnight October 20, 2004 (2004-10-20) 2T5205 5.41[19]
72 6 "Transference" James Marshall Todd Slavkin & Darren Swimmer October 27, 2004 (2004-10-27) 2T5206 5.69[20]
73 7 "Jinx" Paul Shapiro Mark Warshaw November 3, 2004 (2004-11-03) 2T5207 5.02[21]
74 8 "Spell" Jeannot Szwarc Steven S. DeKnight November 10, 2004 (2004-11-10) 2T5208 5.51[22]
75 9 "Bound" Terrence O'Hara Luke Schelhaas November 17, 2004 (2004-11-17) 2T5209 5.06[23]
76 10 "Scare" David Carson Kelly Souders & Brian Peterson December 1, 2004 (2004-12-01) 2T5210 4.89[24]
77 11 "Unsafe" Greg Beeman Steven S. DeKnight & Jeph Loeb January 26, 2005 (2005-01-26) 2T5211 4.21[25]
78 12 "Pariah" Paul Shapiro Holly Harold February 2, 2005 (2005-02-02) 2T5212 4.78[26]
79 13 "Recruit" Jeannot Szwarc Todd Slavkin & Darren Swimmer February 9, 2005 (2005-02-09) 2T5213 4.91[27]
80 14 "Krypto" James Marshall Luke Schelhaas February 16, 2005 (2005-02-16) 2T5214 5.08[28]
81 15 "Sacred" Brad Turner Kelly Souders & Brian Peterson February 23, 2005 (2005-02-23) 2T5215 5.26[29]
82 16 "Lucy" David Barrett Neil Sadhu & Daniel Sulzberg March 2, 2005 (2005-03-02) 2T5216 4.51[30]
83 17 "Onyx" Terrence O'Hara Steven S. DeKnight April 13, 2005 (2005-04-13) 2T5217 3.85[31]
84 18 "Spirit" Whitney Ransick Luke Schelhaas April 20, 2005 (2005-04-20) 2T5218 4.39[32]
85 19 "Blank" Jeannot Szwarc Kelly Souders & Brian Peterson April 27, 2005 (2005-04-27) 2T5219 4.59[33]
86 20 "Ageless" Steven S. DeKnight Steven S. DeKnight May 4, 2005 (2005-05-04) 2T5220 4.51[34]
87 21 "Forever" James Marshall Brian Peterson & Kelly Souders May 11, 2005 (2005-05-11) 2T5221 3.96[35]
88 22 "Commencement" Greg Beeman Todd Slavkin & Darren Swimmer May 18, 2005 (2005-05-18) 2T5222 5.47[36]

Season 5 (2005–06)[edit]

Main article: Smallville (season 5)
No. # Title Directed by Written by U.S. air date Production
code
U.S. viewers
(million)
89 1 "Arrival" James Marshall Todd Slavkin & Darren Swimmer September 29, 2005 (2005-09-29) 2T6401 5.90[37]
90 2 "Mortal" Terrence O'Hara Steven S. DeKnight October 6, 2005 (2005-10-06) 2T6402 5.84[38]
91 3 "Hidden" Whitney Ransick Kelly Souders & Brian Peterson October 13, 2005 (2005-10-13) 2T6403 5.92[39]
92 4 "Aqua" Bradford May Todd Slavkin & Darren Swimmer October 20, 2005 (2005-10-20) 2T6404 6.40[40]
93 5 "Thirst" Paul Shapiro Steven S. DeKnight October 27, 2005 (2005-10-27) 2T6405 5.78[41]
94 6 "Exposed" Jeannot Szwarc Kelly Souders & Brian Peterson November 3, 2005 (2005-11-03) 2T6406 5.41[42]
95 7 "Splinter" James Marshall Steven S. DeKnight November 10, 2005 (2005-11-10) 2T6407 5.51[43]
96 8 "Solitude" Paul Shapiro Todd Slavkin & Darren Swimmer November 17, 2005 (2005-11-17) 2T6408 5.97[44]
97 9 "Lexmas" Rick Rosenthal Holly Harold December 8, 2005 (2005-12-08) 2T6409 5.37[45]
98 10 "Fanatic" Michael Rohl Wandy Maricle January 12, 2006 (2006-01-12) 2T6410 5.45[46]
99 11 "Lockdown" Peter Ellis Steven S. DeKnight January 19, 2006 (2006-01-19) 2T6411 4.90[47]
100 12 "Reckoning" Greg Beeman Kelly Souders & Brian Peterson January 26, 2006 (2006-01-26) 2T6412 6.28[48]
101 13 "Vengeance" Jeannot Szwarc Al Septien & Turi Meyer February 2, 2006 (2006-02-02) 2T6413 5.37[49]
102 14 "Tomb" Whitney Ransick Steven S. DeKnight February 9, 2006 (2006-02-09) 2T6414 5.41[50]
103 15 "Cyborg" Glen Winter Caroline Dries February 16, 2006 (2006-02-16) 2T6415 6.24[51]
104 16 "Hypnotic" Michael Rohl Todd Slavkin & Darren Swimmer March 30, 2006 (2006-03-30) 2T6416 4.78[52]
105 17 "Void" Jeannot Szwarc Holly Harold April 6, 2006 (2006-04-06) 2T6417 4.24[53]
106 18 "Fragile" Tom Welling Todd Slavkin & Darren Swimmer April 13, 2006 (2006-04-13) 2T6418 3.94[54]
107 19 "Mercy" James Marshall Steven S. DeKnight April 20, 2006 (2006-04-20) 2T6419 4.41[55]
108 20 "Fade" Terrence O'Hara Turi Meyer & Al Septien April 27, 2006 (2006-04-27) 2T6420 4.34[56]
109 21 "Oracle" Patrick Norris Caroline Dries May 4, 2006 (2006-05-04) 2T6421 4.81[57]
110 22 "Vessel" James Marshall Kelly Souders & Brian Peterson May 11, 2006 (2006-05-11) 2T6422 4.85[58]

Season 6 (2006–07)[edit]

Main article: Smallville (season 6)
No. # Title Directed by Written by U.S. air date Production
code
U.S. viewers
(million)
111 1 "Zod" James Marshall Steven S. DeKnight September 28, 2006 (2006-09-28) 2T7701 4.96[59]
112 2 "Sneeze" Paul Shapiro Todd Slavkin & Darren Swimmer October 5, 2006 (2006-10-05) 2T7702 4.52[60]
113 3 "Wither" Whitney Ransick Tracy Bellomo October 12, 2006 (2006-10-12) 2T7703 4.88[61]
114 4 "Arrow" Michael Rohl Brian Peterson & Kelly Souders October 19, 2006 (2006-10-19) 2T7704 4.71[62]
115 5 "Reunion" Jeannot Szwarc Steven S. DeKnight October 26, 2006 (2006-10-26) 2T7705 4.79[63]
116 6 "Fallout" Glen Winter Holly Harold November 2, 2006 (2006-11-02) 2T7706 5.01[64]
117 7 "Rage" Whitney Ransick Todd Slavkin & Darren Swimmer November 9, 2006 (2006-11-09) 2T7707 4.46[65]
118 8 "Static" James Conway Shintaro Shimosawa & James Morris November 16, 2006 (2006-11-16) 2T7708 4.70[66]
119 9 "Subterranean" Rick Rosenthal Caroline Dries December 7, 2006 (2006-12-07) 2T7709 4.31[67]
120 10 "Hydro" Tom Welling Brian Peterson & Kelly Souders January 11, 2007 (2007-01-11) 2T7710 4.68[68]
121 11 "Justice" Steven S. DeKnight Steven S. DeKnight January 18, 2007 (2007-01-18) 2T7711 5.26[69]
122 12 "Labyrinth" Whitney Ransick Al Septien & Turi Meyer January 25, 2007 (2007-01-25) 2T7712 5.00[70]
123 13 "Crimson" Glen Winter Brian Peterson & Kelly Souders February 1, 2007 (2007-02-01) 2T7713 4.91[71]
124 14 "Trespass" Michael Rohl Tracy A. Bellomo February 8, 2007 (2007-02-08) 2T7714 4.74[72]
125 15 "Freak" Michael Rosenbaum Todd Slavkin & Darren Swimmer February 15, 2007 (2007-02-15) 2T7715 4.76[73]
126 16 "Promise" Rick Rosenthal Kelly Souders & Brian Peterson March 15, 2007 (2007-03-15) 2T7716 4.69[74]
127 17 "Combat" James Marshall Turi Meyer & Al Septien March 22, 2007 (2007-03-22) 2T7717 4.07[75]
128 18 "Progeny" Terrence O'Hara Genevieve Sparling April 19, 2007 (2007-04-19) 2T7718 3.98[76]
129 19 "Nemesis" Mairzee Almas Caroline Dries April 26, 2007 (2007-04-26) 2T7719 3.88[77]
130 20 "Noir" Jeannot Szwarc Brian Peterson & Kelly Souders May 3, 2007 (2007-05-03) 2T7720 3.59[78]
131 21 "Prototype" Mat Beck Steven S. DeKnight May 10, 2007 (2007-05-10) 2T7721 3.43[79]
132 22 "Phantom" James Marshall Todd Slavkin & Darren Swimmer May 17, 2007 (2007-05-17) 2T7722 4.14[80]

Season 7 (2007–08)[edit]

Main article: Smallville (season 7)
No. # Title Directed by Written by U.S. air date Production
code
U.S. viewers
(million)
133 1 "Bizarro" Michael Rohl Brian Peterson & Kelly Souders September 27, 2007 (2007-09-27) 3T6301 5.18[81]
134 2 "Kara" James Conway Todd Slavkin & Darren Swimmer October 4, 2007 (2007-10-04) 3T6302 4.59[82]
135 3 "Fierce" Whitney Ransick Holly Harold October 11, 2007 (2007-10-11) 3T6303 4.82[83]
136 4 "Cure" Rick Rosenthal Al Septien & Turi Meyer October 18, 2007 (2007-10-18) 3T6304 5.18[84]
137 5 "Action" Mairzee Almas Caroline Dries October 25, 2007 (2007-10-25) 3T6306 4.65[85]
138 6 "Lara" James Conway Don Whitehead & Holly Henderson November 1, 2007 (2007-11-01) 3T6305 4.31[86]
139 7 "Wrath" Charles Beeson Kelly Souders & Brian Peterson November 8, 2007 (2007-11-08) 3T6307 4.64[87]
140 8 "Blue" Glen Winter Todd Slavkin & Darren Swimmer November 15, 2007 (2007-11-15) 3T6308 4.51[88]
141 9 "Gemini" Whitney Ransick Caroline Dries December 13, 2007 (2007-12-13) 3T6309 3.71[89]
142 10 "Persona" Todd Slavkin Don Whitehead & Holly Henderson January 31, 2008 (2008-01-31) 3T6310 3.81[90]
143 11 "Siren" Kevin G. Fair Kelly Souders & Brian Peterson February 7, 2008 (2008-02-07) 3T6311 4.01[91]
144 12 "Fracture" James Marshall Caroline Dries February 14, 2008 (2008-02-14) 3T6312 3.67[92]
145 13 "Hero" Michael Rohl Aaron & Todd Helbing March 13, 2008 (2008-03-13) 3T6313 3.80[93]
146 14 "Traveler" Glen Winter Don Whitehead & Holly Henderson March 20, 2008 (2008-03-20) 3T6314 3.44[94]
147 15 "Veritas" James Marshall Kelly Souders & Brian Peterson March 27, 2008 (2008-03-27) 3T6315 3.86[95]
148 16 "Descent" Ken Horton Don Whitehead & Holly Henderson April 17, 2008 (2008-04-17) 3T6316 3.61[96]
149 17 "Sleeper" Whitney Ransick Caroline Dries April 24, 2008 (2008-04-24) 3T6317 3.62[97]
150 18 "Apocalypse" Tom Welling Al Septien & Turi Meyer May 1, 2008 (2008-05-01) 3T6318 3.81[98]
151 19 "Quest" Kenneth Biller Holly Harold May 8, 2008 (2008-05-08) 3T6319 3.99[99]
152 20 "Arctic" Todd Slavkin Don Whitehead & Holly Henderson May 15, 2008 (2008-05-15) 3T6320 3.85[100]

Season 8 (2008–09)[edit]

Main article: Smallville (season 8)
No. # Title Directed by Written by U.S. air date Production
code
U.S. viewers
(million)
153 1 "Odyssey" Kevin G. Fair Kelly Souders, Brian Peterson, Todd Slavkin & Darren Swimmer September 18, 2008 (2008-09-18) 3T7451 4.34[101]
154 2 "Plastique" Rick Rosenthal Don Whitehead & Holly Henderson September 25, 2008 (2008-09-25) 3T7452 4.18[102]
155 3 "Toxic" Mairzee Almas Caroline Dries October 2, 2008 (2008-10-02) 3T7453 4.05[103]
156 4 "Instinct" James Conway Al Septien & Turi Meyer October 9, 2008 (2008-10-09) 3T7454 4.11[104]
157 5 "Committed" Glen Winter Bryan Q. Miller October 16, 2008 (2008-10-16) 3T7455 4.18[105]
158 6 "Prey" Michael Rohl Kelly Souders & Brian Peterson October 23, 2008 (2008-10-23) 377456 4.15[106]
159 7 "Identity" Mairzee Almas Todd Slavkin & Darren Swimmer October 30, 2008 (2008-10-30) 3T7457 4.32[107]
160 8 "Bloodline" Michael Rohl Caroline Dries November 6, 2008 (2008-11-06) 3T7459 4.45[108]
161 9 "Abyss" Kevin G. Fair Don Whitehead & Holly Henderson November 13, 2008 (2008-11-13) 3T7458 3.55[109]
162 10 "Bride" Jeannot Szwarc Al Septien & Turi Meyer November 20, 2008 (2008-11-20) 3T7460 4.18[110]
163 11 "Legion" Glen Winter Geoff Johns January 15, 2009 (2009-01-15) 3T7461 4.29[111]
164 12 "Bulletproof" Morgan Beggs Bryan Miller January 22, 2009 (2009-01-22) 3T7462 3.85[112]
165 13 "Power" Allison Mack Todd Slavkin & Darren Swimmer January 29, 2009 (2009-01-29) 3T7463 4.21[113]
166 14 "Requiem" Michael Rohl Don Whitehead & Holly Henderson February 5, 2009 (2009-02-05) 3T7464 3.93[114]
167 15 "Infamous" Glen Winter Caroline Dries March 12, 2009 (2009-03-12) 3T7465 3.56[115]
168 16 "Turbulence" Kevin G. Fair Al Septien & Turi Meyer March 19, 2009 (2009-03-19) 3T7466 3.49[116]
169 17 "Hex" Mairzee Almas Bryan Miller March 26, 2009 (2009-03-26) 3T7467 3.79[117]
170 18 "Eternal" James Marshall Brian Peterson & Kelly Souders April 2, 2009 (2009-04-02) 3T7468 3.84[118]
171 19 "Stiletto" Kevin G. Fair Caroline Dries April 23, 2009 (2009-04-23) 3T7469 3.10[119]
172 20 "Beast" Michael Rohl Genevieve Sparling April 30, 2009 (2009-04-30) 3T7470 3.23[120]
173 21 "Injustice" Tom Welling Al Septien & Turi Meyer May 7, 2009 (2009-05-07) 3T7471 3.39[121]
174 22 "Doomsday" James Marshall Brian Peterson & Kelly Souders May 14, 2009 (2009-05-14) 3T7472 3.13[122]

Season 9 (2009–10)[edit]

Main article: Smallville (season 9)
No. # Title Directed by Written by U.S. air date Production
code
U.S. viewers
(million)
175 1 "Savior" Kevin G. Fair Kelly Souders & Brian Peterson September 25, 2009 (2009-09-25) 3X5251 2.58[123]
176 2 "Metallo" Mairzee Almas Don Whitehead & Holly Henderson October 2, 2009 (2009-10-02) 3X5252 2.24[124]
177 3 "Rabid" Michael Rohl Jordan Hawley October 9, 2009 (2009-10-09) 3X5253 2.30[125]
178 4 "Echo" Wayne Rose Bryan Miller October 16, 2009 (2009-10-16) 3X5254 2.61[126]
179 5 "Roulette" Kevin G. Fair Genevieve Sparling October 23, 2009 (2009-10-23) 3X5256 2.52[127]
180 6 "Crossfire" Michael Rohl Don Whitehead & Holly Henderson October 30, 2009 (2009-10-30) 3X5257 2.57[128]
181 7 "Kandor" Jeannot Szwarc Al Septien & Turi Meyer November 6, 2009 (2009-11-06) 3X5258 2.63[129]
182 8 "Idol" Glen Winter Anne Cofell Saunders November 13, 2009 (2009-11-13) 3X5255 2.68[130]
183 9 "Pandora" Morgan Beggs Drew Landis & Julia Swift November 20, 2009 (2009-11-20) 3X5259 2.45[131]
184 10 "Disciple" Mairzee Almas Jordan Hawley January 29, 2010 (2010-01-29) 3X5260 2.52[132]
185 11[Note 1] "Absolute Justice" Glen Winter (1st Hour)
Tom Welling (2nd Hour)
Geoff Johns February 5, 2010 (2010-02-05) 3X5262/3X5263 2.77[135]
186 12 "Warrior" Allison Mack Bryan Miller February 12, 2010 (2010-02-12) 3X5261 2.48[136]
187 13 "Persuasion" Christopher Petry Anne Cofell Saunders February 19, 2010 (2010-02-19) 3X5264 2.42[137]
188 14 "Conspiracy" Turi Meyer Al Septien & Turi Meyer February 26, 2010 (2010-02-26) 3X5265 2.53[138]
189 15 "Escape" Kevin G. Fair Genevieve Sparling April 2, 2010 (2010-04-02) 3X5266 2.13[139]
190 16 "Checkmate" Tim Scanlan John Chisholm April 9, 2010 (2010-04-09) 3X5267 2.13[140]
191 17 "Upgrade" Michael Rohl Drew Landis & Julia Swift April 16, 2010 (2010-04-16) 3X5268 1.84[141]
192 18 "Charade" Brian Peterson Don Whitehead & Holly Henderson April 23, 2010 (2010-04-23) 3X5269 2.23[142]
193 19 "Sacrifice" Kevin G. Fair Justin Hartley, Bryan Miller & Walter Wong April 30, 2010 (2010-04-30) 3X5270 1.89[143]
194 20 "Hostage" Glen Winter Jordan Hawley & Anne Cofell Saunders May 7, 2010 (2010-05-07) 3X5271 1.92[144]
195 21 "Salvation" Greg Beeman Al Septien & Turi Meyer May 14, 2010 (2010-05-14) 3X5272 2.45[145]

Season 10 (2010–11)[edit]

No. # Title Directed by Written by U.S. air date[146] Production
code[147]
U.S. viewers
(million)
196 1 "Lazarus" Kevin G. Fair Don Whitehead & Holly Henderson September 24, 2010 (2010-09-24) 3X6001 2.98[148]
197 2 "Shield" Glen Winter Jordan Hawley October 1, 2010 (2010-10-01) 3X6002 2.38[149]
198 3 "Supergirl" Mairzee Almas Anne Cofell Saunders October 8, 2010 (2010-10-08) 3X6003 2.30[150]
199 4[Note 2] "Homecoming" Jeannot Szwarc Brian Peterson & Kelly Souders October 15, 2010 (2010-10-15) 3X6004 3.19[153]
200 5 "Isis" James Marshall Genevieve Sparling October 22, 2010 (2010-10-22) 3X6005 2.60[154]
201 6 "Harvest" Turi Meyer Al Septien & Turi Meyer October 29, 2010 (2010-10-29) 3X6007 2.96[155]
202 7 "Ambush" Christopher Petry Don Whitehead & Holly Henderson November 5, 2010 (2010-11-05) 3X6006 2.63[156]
203 8 "Abandoned" Kevin G. Fair Drew Landis & Julia Swift November 12, 2010 (2010-11-12) 3X6008 2.90[157]
204 9 "Patriot" Tom Welling John Chisholm November 19, 2010 (2010-11-19) 3X6009 2.60[158]
205 10 "Luthor" Kelly Souders Bryan Q. Miller December 3, 2010 (2010-12-03) 3X6010 2.76[159]
206 11 "Icarus" Mairzee Almas Genevieve Sparling December 10, 2010 (2010-12-10) 3X6011 2.55[160]
207 12 "Collateral" Morgan Beggs Jordan Hawley February 4, 2011 (2011-02-04) 3X6012 2.37[161]
208 13 "Beacon" Mike Rohl Don Whitehead & Holly Henderson February 11, 2011 (2011-02-11) 3X6013 2.32[162]
209 14 "Masquerade" Tim Scanlan Bryan Q. Miller February 18, 2011 (2011-02-18) 3X6014 2.22[163]
210 15 "Fortune" Christopher Petry Anne Coffell Saunders February 25, 2011 (2011-02-25) 3X6015 2.56[164]
211 16 "Scion" Al Septien Al Septien & Turi Meyer March 4, 2011 (2011-03-04) 3X6016 2.18[165]
212 17 "Kent" Jeannot Szwarc Brian Peterson & Kelly Souders April 15, 2011 (2011-04-15) 3X6018 2.37[166]
213 18 "Booster" Tom Welling Geoff Johns April 22, 2011 (2011-04-22) 3X6017 2.35[167]
214 19 "Dominion" Justin Hartley John Chisholm April 29, 2011 (2011-04-29) 3X6021 1.99[168]
215 20 "Prophecy" Mike Rohl Bryan Q. Miller & Anne Cofell Saunders May 6, 2011 (2011-05-06) 3X6019 2.07[169]
216/217 21/22 "Finale" Kevin G. Fair (Part 1)
Greg Beeman (Part 2)
Al Septien & Turi Meyer (Part 1)
Brian Peterson & Kelly Souders (Part 2)
May 13, 2011 (2011-05-13) 3X6020/3X6022 3.02[170]

Nielsen rankings[edit]

The following is a table for the seasonal rankings, based on average total estimated viewers per episode, of Smallville on The WB and The CW. "Rank" refers to how Smallville rated compared to the other television series which aired during primetime hours.

Season Timeslot (ET/PT) Network Premiered Ended Rank Viewers
(in millions)
Date Premiere
Viewers
(in millions)
Date Finale
Viewers
(in millions)
Season 1 Tuesday 9/8C The WB October 16, 2001 8.40[171] May 21, 2002 3.80[172] #115[173] 5.90[173]
Season 2 September 24, 2002 8.70[174] May 20, 2003 7.50[175] #113[176] 6.30[176]
Season 3 Wednesday 8/7C October 1, 2003 6.80[177] May 19, 2004 5.92[178] #141[179] 4.96[179]
Season 4 September 22, 2004 6.07[180] May 18, 2005 5.47[181] #124[182] 4.40[182]
Season 5 Thursday 8/7C September 29, 2005 5.90[183] May 11, 2006 4.85[184] #117[185] 4.70[185]
Season 6 The CW September 28, 2006 4.96[186] May 17, 2007 4.14[187] #125[188] 4.10[188]
Season 7 September 27, 2007 5.18[189] May 15, 2008 3.85[190] #175[191] 3.77[191]
Season 8 September 18, 2008 4.34[192] May 14, 2009 3.13[193] #152[194] 3.74[194]
Season 9 Friday 8/7C September 25, 2009[195] 2.58[196] May 14, 2010 2.45[197] #129[198] 2.38[198]
Season 10 September 24, 2010[199] 2.98[200] May 13, 2011[201] 3.02[202] #202[203] 3.19[204]

Home release[edit]

All ten seasons have been released on DVD in Regions 1, 2 and 4. Seasons five and six were also released in the now obsolete HD DVD format on November 28, 2006,[205] and September 18, 2007,[206] respectively. Seasons six, seven, eight, nine and ten have also been released on Blu-ray formats. The DVD releases include commentary by cast and crew members on selected episodes, deleted scenes, and behind-the-scenes featurettes. The promotional tie-ins, Chloe Chronicles and Vengeance Chronicles, accompanied the season two, three, and five box sets respectively. Other special features include interactive functionality such as a tour of Smallville, a comic book, and DVD-ROM material.[207] The complete series box set includes additional special features never before released.

Complete Season Release dates
Region 1 Region 2 Region 4
1st September 23, 2003[208] October 13, 2003[209] December 3, 2003[210]
2nd May 18, 2004[211] September 17, 2004[212] January 1, 2005[213]
3rd November 16, 2004[214] April 18, 2005[215] July 13, 2005[216]
4th September 13, 2005[217] October 10, 2005[218] November 11, 2006[219]
5th September 12, 2006[220] August 28, 2006[221] April 4, 2007[222]
6th September 18, 2007[223] October 22, 2007[224] March 5, 2008[225]
7th September 9, 2008[226] October 13, 2008[227] March 3, 2009[228]
8th August 25, 2009[229] October 12, 2009[230] March 31, 2010[231]
9th September 7, 2010[133] October 25, 2010[232] March 2, 2011[233]
10th November 29, 2011[234] October 17, 2011[235] April 4, 2012[236]
The Complete Series November 29, 2011[234] October 17, 2011[237] TBA
Season Smallville Blu-ray releases
Region A Region B
United States Canada United Kingdom Australia
6th September 18, 2007[238] October 9, 2007[239] October 13, 2008[240] March 3, 2009[241]
7th September 9, 2008[242] October 13, 2008[243] March 3, 2009[244]
8th August 25, 2009[245] October 12, 2009[246] March 31, 2010[247]
9th September 7, 2010[133] October 25, 2010[248] March 1, 2011[249]
10th November 29, 2011[234] October 17, 2011[250] April 4, 2012[251]

Notes[edit]

  1. ^ The producers consider "Absolute Justice" two separately produced episodes. However, The CW broadcast them as a single episode, and later packaged it as a single episode in the season nine DVD. Therefore, "Absolute Justice" is both the 185th and 186th episode produced, but only the 185th episode aired.[133][134]
  2. ^ The producers consider season nine's "Absolute Justice" two separately produced episodes. However, The CW combined those two episodes into a single broadcast, and the then packaged it in the season nine DVD as one episode as well. Therefore, "Absolute Justice" is both the 185th and 186th episode produced, but only the 185th episode aired. Thus, "Homecoming" is considered the 200th episode produced, but the 199th broadcast. The CW recognizes "Homecoming" to be the 200th episode.[151][152]

References[edit]

  1. ^ Jessica Seid (January 24, 2006). "'Gilmore Girls' meet 'Smackdown':CW Network to combine WB, UPN in CBS-Warner venture beginning in September". CNN Money. Retrieved August 19, 2007. 
  2. ^ Seth Gunderson (2001-11-05). "Smallville, Kansas. The biggest little town you've ever seen.". The Trades. Archived from the original on October 11, 2007. Retrieved 2007-05-22. 
  3. ^ a b c d e f g h i j k l m n o p q r s t "Episode List: Smallville – Season 1". TV Tango. Retrieved 2014-05-17. 
  4. ^ a b c d e f g h i j k l m n o p q r s t u v w "Episode List: Smallville – Season 2". TV Tango. Retrieved May 17, 2014. 
  5. ^ a b c d e f g h i j k l m Smallville – Series – Episode List – TV Tango
  6. ^ "Weekly Program Rankings". ABC Medianet. February 24, 2004. Retrieved March 28, 2009. 
  7. ^ "Weekly Program Rankings". ABC Medianet. March 2, 2004. Retrieved March 28, 2009. 
  8. ^ "Weekly Program Rankings". ABC Medianet. March 9, 2004. Retrieved March 28, 2009. 
  9. ^ "Weekly Program Rankings". ABC Medianet. April 20, 2004. Retrieved March 28, 2009. 
  10. ^ "Weekly Program Rankings". ABC Medianet. April 27, 2004. Retrieved March 28, 2009. 
  11. ^ "Weekly Program Rankings". ABC Medianet. May 4, 2004. Retrieved March 28, 2009. 
  12. ^ "Weekly Program Rankings". ABC Medianet. May 11, 2004. Retrieved March 28, 2009. 
  13. ^ "Weekly Program Rankings". ABC Medianet. May 18, 2004. Retrieved March 28, 2009. 
  14. ^ "Weekly Program Rankings". ABC Medianet. May 25, 2004. Retrieved March 28, 2009. 
  15. ^ "Weekly Program Rankings". ABC Medianet. September 29, 2004. Retrieved March 28, 2009. 
  16. ^ "Weekly Program Rankings". ABC Medianet. October 5, 2004. Retrieved March 28, 2009. 
  17. ^ "Weekly Program Rankings". ABC Medianet. October 12, 2004. Retrieved March 28, 2009. 
  18. ^ "Weekly Program Rankings". ABC Medianet. October 19, 2004. Retrieved March 28, 2009. 
  19. ^ "Weekly Program Rankings". ABC Medianet. October 26, 2004. Retrieved March 28, 2009. 
  20. ^ "Weekly Program Rankings". ABC Medianet. November 2, 2004. Retrieved March 28, 2009. 
  21. ^ "Weekly Program Rankings Report". ABC Medianet. November 9, 2004. Retrieved March 28, 2009. 
  22. ^ "Weekly Program Rankings". ABC Medianet. November 16, 2004. Retrieved March 28, 2009. 
  23. ^ "Weekly Program Rankings". ABC Medianet. November 23, 2004. Retrieved March 28, 2009. 
  24. ^ "Weekly Program Rankings". ABC Medianet. December 7, 2004. Retrieved March 28, 2009. 
  25. ^ "Weekly Program Rankings". ABC Medianet. February 1, 2005. Retrieved March 28, 2009. 
  26. ^ "Weekly Program Rankings". ABC Medianet. February 8, 2005. Retrieved March 28, 2009. 
  27. ^ "Weekly Program Rankings". ABC Medianet. February 15, 2005. Retrieved March 28, 2009. 
  28. ^ "Weekly Program Rankings". ABC Medianet. February 23, 2005. Retrieved March 28, 2009. 
  29. ^ "Weekly Program Rankings". ABC Medianet. March 1, 2005. Retrieved March 28, 2009. 
  30. ^ "Weekly Program Rankings". ABC Medianet. March 8, 2005. Retrieved March 28, 2009. 
  31. ^ "Weekly Program Rankings". ABC Medianet. April 19, 2005. Retrieved March 28, 2009. 
  32. ^ "Weekly Program Rankings". ABC Medianet. April 26, 2005. Retrieved March 28, 2009. 
  33. ^ "Weekly Program Rankings". ABC Medianet. May 3, 2005. Retrieved March 28, 2009. 
  34. ^ "Weekly Program Rankings". ABC Medianet. May 10, 2005. Retrieved March 28, 2009. 
  35. ^ "Weekly Program Rankings". ABC Medianet. May 17, 2005. Retrieved March 28, 2009. 
  36. ^ "Weekly Program Rankings". ABC Medianet. May 24, 2005. Retrieved March 28, 2009. 
  37. ^ "Weekly Program Rankings". ABC Medianet. October 4, 2005. Retrieved March 28, 2009. 
  38. ^ "Weekly Program Rankings". ABC Medianet. October 11, 2005. Retrieved March 28, 2009. 
  39. ^ "Weekly Program Rankings". ABC Medianet. October 18, 2005. Retrieved March 28, 2009. 
  40. ^ "Weekly Program Rankings". ABC Medianet. October 25, 2005. Retrieved March 28, 2009. 
  41. ^ "Weekly Program Rankings". ABC Medianet. November 1, 2005. Retrieved March 28, 2009. 
  42. ^ "Weekly Program Rankings". ABC Medianet. November 8, 2005. Retrieved March 28, 2009. 
  43. ^ "Weekly Program Rankings". ABC Medianet. November 15, 2005. Retrieved March 28, 2009. 
  44. ^ "Weekly Program Rankings". ABC Medianet. November 22, 2005. Retrieved March 28, 2009. 
  45. ^ "Weekly Program Rankings". ABC Medianet. December 13, 2005. Retrieved March 28, 2009. 
  46. ^ "Weekly Program Rankings". ABC Medianet. January 18, 2006. Retrieved March 28, 2009. 
  47. ^ "Weekly Program Rankings". ABC Medianet. January 24, 2006. Retrieved March 28, 2009. 
  48. ^ "Weekly Program Rankings". ABC Medianet. January 31, 2006. Retrieved March 28, 2009. 
  49. ^ "Weekly Program Rankings". ABC Medianet. February 7, 2006. Retrieved March 28, 2009. 
  50. ^ "Weekly Program Rankings". ABC Medianet. February 14, 2006. Retrieved March 28, 2009. 
  51. ^ "Weekly Program Rankings". ABC Medianet. February 22, 2006. Retrieved March 28, 2009. 
  52. ^ "Weekly Program Rankings". ABC Medianet. April 4, 2006. Retrieved March 28, 2009. 
  53. ^ "Weekly Program Rankings". ABC Medianet. April 11, 2006. Retrieved March 28, 2009. 
  54. ^ "Weekly Program Rankings". ABC Medianet. April 18, 2006. Retrieved March 28, 2009. 
  55. ^ "Weekly Program Rankings". ABC Medianet. April 25, 2006. Retrieved March 28, 2009. 
  56. ^ "Weekly Program Rankings". ABC Medianet. May 2, 2006. Retrieved March 28, 2009. 
  57. ^ "Weekly Program Rankings". ABC Medianet. May 9, 2006. Retrieved March 28, 2009. 
  58. ^ "Weekly Program Rankings". ABC Medianet. May 16, 2006. Retrieved March 28, 2009. 
  59. ^ "Weekly Program Rankings". ABC Medianet. 2006-10-03. Retrieved March 28, 2009. 
  60. ^ "Weekly Program Rankings". ABC Medianet. 2006-10-10. Retrieved March 28, 2009. 
  61. ^ "Weekly Program Rankings". ABC Medianet. 2006-10-17. Retrieved March 28, 2009. 
  62. ^ "Weekly Program Rankings". ABC Medianet. 2006-10-24. Retrieved March 28, 2009. 
  63. ^ "Weekly Program Rankings". ABC Medianet. 2006-10-31. Retrieved March 28, 2009. 
  64. ^ "Weekly Program Rankings". ABC Medianet. 2006-11-07. Retrieved March 28, 2009. 
  65. ^ "Weekly Program Rankings". ABC Medianet. 2006-11-14. Retrieved March 28, 2009. 
  66. ^ "Weekly Program Rankings". ABC Medianet. 2006-11-21. Retrieved March 28, 2009. 
  67. ^ "Weekly Program Rankings". ABC Medianet. 2006-12-12. Retrieved March 28, 2009. 
  68. ^ "Weekly Program Rankings". ABC Medianet. 2007-01-17. Retrieved March 28, 2009. 
  69. ^ "Weekly Program Rankings". ABC Medianet. 2007-01-23. Retrieved March 28, 2009. 
  70. ^ "Weekly Program Rankings". ABC Medianet. 2007-01-30. Retrieved March 28, 2009. 
  71. ^ "Weekly Program Rankings". ABC Medianet. 2007-02-06. Retrieved March 28, 2009. 
  72. ^ "Weekly Program Rankings". ABC Medianet. 2007-02-13. Retrieved March 28, 2009. 
  73. ^ "Weekly Program Rankings". ABC Medianet. 2007-02-21. Retrieved March 28, 2009. 
  74. ^ "Weekly Program Rankings". ABC Medianet. 2007-03-20. Retrieved March 28, 2009. 
  75. ^ "Weekly Program Rankings". ABC Medianet. 2007-03-27. Retrieved March 28, 2009. 
  76. ^ "Weekly Program Rankings". ABC Medianet. 2007-04-24. Retrieved March 28, 2009. 
  77. ^ "Weekly Program Rankings". ABC Medianet. 2007-05-01. Retrieved March 28, 2009. 
  78. ^ "Weekly Program Rankings". ABC Medianet. 2007-05-08. Retrieved March 28, 2009. 
  79. ^ "Weekly Program Rankings". ABC Medianet. 2007-05-15. Retrieved March 28, 2009. 
  80. ^ "Weekly Program Rankings". ABC Medianet. 2007-05-22. Retrieved March 28, 2009. 
  81. ^ "Weekly Program Rankings". ABC Medianet. October 2, 2007. Retrieved March 28, 2009. 
  82. ^ "Weekly Program Rankings". ABC Medianet. October 9, 2007. Retrieved March 28, 2009. 
  83. ^ "Weekly Program Rankings". ABC Medianet. October 16, 2007. Retrieved March 28, 2009. 
  84. ^ "Weekly Program Rankings". ABC Medianet. October 23, 2007. Retrieved March 28, 2009. 
  85. ^ "Weekly Program Rankings". ABC Medianet. October 30, 2007. Retrieved March 28, 2009. 
  86. ^ Calabria, Rosario T. (November 2, 2007). "Broadcast TV Ratings for November 1, 2007". Entertainment Now. Retrieved April 19, 2008. 
  87. ^ "Weekly Program Rankings". ABC Medianet. November 13, 2007. Retrieved March 28, 2009. 
  88. ^ "Weekly Program Rankings". ABC Medianet. November 20, 2007. Retrieved March 28, 2009. 
  89. ^ Gorman, Bill (December 19, 2007). "Top CW Primetime Shows, December 10–16". TV by the Numbers. Retrieved November 22, 2008. 
  90. ^ "Weekly Program Rankings". ABC Medianet. February 5, 2008. Retrieved March 28, 2009. 
  91. ^ "Weekly Program Rankings". ABC Medianet. February 12, 2008. Retrieved March 28, 2009. 
  92. ^ "Weekly Program Rankings". ABC Medianet. February 20, 2008. Retrieved March 28, 2009. 
  93. ^ "Weekly Program Rankings". ABC Medianet. March 18, 2008. Retrieved March 28, 2009. 
  94. ^ "Weekly Program Rankings". ABC Medianet. March 25, 2008. Retrieved March 28, 2009. 
  95. ^ "Weekly Program Rankings". ABC Medianet. April 1, 2008. Retrieved March 28, 2009. 
  96. ^ "Weekly Program Rankings". ABC Medianet. April 22, 2008. Retrieved March 28, 2009. 
  97. ^ "Weekly Program Rankings". ABC Medianet. April 29, 2008. Retrieved March 28, 2009. 
  98. ^ "Weekly Program Rankings". ABC Medianet. May 1, 2008. Retrieved March 28, 2009. 
  99. ^ "Weekly Program Rankings". ABC Medianet. May 13, 2008. Retrieved March 28, 2009. 
  100. ^ "Weekly Program Rankings". ABC Medianet. May 20, 2008. Retrieved March 28, 2009. 
  101. ^ Gorman, Bill (September 23, 2008). "Top CW Primetime Shows, September 15–21". TV by the Numbers. Retrieved November 22, 2008. 
  102. ^ Gorman, Bill (September 30, 2008). "Top CW Primetime Shows, September 22–28". TV by the Numbers. Retrieved November 22, 2008. 
  103. ^ Gorman, Bill (October 7, 2008). "Top CW Primetime Shows, September 29 – October 5". Retrieved November 22, 2008. 
  104. ^ Gorman, Bill (October 14, 2008). "Top CW Primetime Shows, October 6–12". TV by the Numbers. Retrieved November 22, 2008. 
  105. ^ Gorman, Bill (October 21, 2008). "Top CW Primetime Shows, October 13–19". TV by the Numbers. Retrieved November 22, 2008. 
  106. ^ Seidman, Robert (October 29, 2008). "Top CW Primetime Shows, October 20–26". TV by the Numbers. Retrieved November 22, 2008. 
  107. ^ Seidman, Robert (November 4, 2008). "Top CW Primetime Shows, October 27 – November 2". TV by the Numbers. Retrieved November 22, 2008. 
  108. ^ Seidman, Robert (November 11, 2008). "Top CW Primetime Shows, November 3–9". TV by the Numbers. Retrieved November 22, 2008. 
  109. ^ Seidman, Robert (November 18, 2008). "Top CW Primetime Shows, November 10–16, 2008". TV by the Numbers. Retrieved November 22, 2008. 
  110. ^ Seidman, Robert (November 25, 2008). "Top CW Primetime Shows, November 17–23". TV by the Numbers. Retrieved 2008-11-25. 
  111. ^ Seidman, Robert (January 21, 2009). "Top CW Primetime Shows, January 12–18". TV by the Numbers. Retrieved January 21, 2009. 
  112. ^ Seidman, Robert (January 27, 2009). "Top CW Primetime Shows, January 19–25, 2009". TV by the Number. Retrieved February 22, 2009. 
  113. ^ Seidman, Robert (February 3, 2009). "Top CW Primetime Shows, January 26 – February 1, 2009". TV by the Numbers. Retrieved February 5, 2009. 
  114. ^ Seidman, Robert (February 10, 2009). "Top CW Primetime Shows, February 2–8, 2009". TV by the Numbers. Retrieved February 11, 2009. 
  115. ^ Seidman, Robert (March 17, 2009). "Top CW Primetime Shows, March 9–15, 2009". TV by the Numbers. Retrieved March 20, 2009. 
  116. ^ Seidman, Robert (March 24, 2009). "Top CW Primetime Shows, March 16–22, 2009". TV by the Numbers. Retrieved March 25, 2009. 
  117. ^ Seidman, Robert (March 31, 2009). "Top CW Primetime Shows, March 23–29, 2009". TV by the Numbers. Retrieved April 1, 2009. 
  118. ^ Seidman, Robert (April 7, 2009). "Top CW Primetime Shows, March 30 – April 5, 2009". TV by the Numbers. Retrieved April 7, 2009. 
  119. ^ Seidman, Robert (May 2, 2009). "Top CW Primetime Shows, April 20–26, 2009". TV by the Numbers. Retrieved May 2, 2009. 
  120. ^ Seidman, Robert (May 6, 2009). "Top CW Primetime Shows, April 27 – May 3, 2009". TV by the Numbers. Retrieved May 12, 2009. 
  121. ^ Seidman, Robert (May 12, 2009). "Top CW Primetime Shows, May 4–10, 2009". TV by the Numbers. Retrieved May 12, 2009. 
  122. ^ Seidman, Robert (May 19, 2009). "Top CW Primetime Shows, May 11–17, 2009". TV by the Numbers. Retrieved May 20, 2009. 
  123. ^ Gorman, Bill (October 12, 2009). "Dollhouse Premiere 18–49 Rating Increases To A 1.5 Via DVR; Hopeful or Futile?". TV by the Numbers. Retrieved October 20, 2009. 
  124. ^ Berman, Marc (October 20, 2009). "ABC Wins Monday Overnights; Fox the Network to Beat Among Adults 18–49". MediaWeek.com. Retrieved October 21, 2009. 
  125. ^ Seidman, Robert (October 10, 2009). "TV Ratings: Dollhouse rises; Ghost Whisperer leads CBS to win". TV by the Numbers. Retrieved October 10, 2009. 
  126. ^ Seidman, Robert (November 2, 2009). "Smallville sees HUGE DVR increases DVR viewer increases: House most DVR’d; Fringe biggest % increase". TV by the Numbers. Retrieved November 2, 2009. 
  127. ^ Gorman, Bill (October 24, 2009). "Updated TV Ratings: Dollhouse hits low note; Medium wins with adults 18–49". TV by the Numbers. Retrieved October 24, 2009. 
  128. ^ Seidman, Robert (November 16, 2009). "crazed #Smallville fans, 10/30 episode boosted with DVR from L+SD 2.565M to L+7 3.24 million. 18–49 went from a 1.1 rating to a 1.5 rating". Twitter. Retrieved November 18, 2009. 
  129. ^ Seidman, Robert (November 9, 2009). "UPDATED Friday Broadcast Finals: Smallville hits several season highs". TV by the Numbers. Retrieved November 9, 2009. 
  130. ^ "Live Plus 7 Day Ratings Update". MediaWeek. November 17, 2009. Retrieved November 18, 2009. 
  131. ^ Seidman, Robert (November 21, 2009). "TV Ratings:Ghost Whisperer leads night with adults 18–49; Shrek the Third helps ABC". TV by the Numbers. Retrieved November 21, 2009. 
  132. ^ Seidman, Robert (January 30, 2010). "TV Ratings: CBS Wins Slow Friday; Smallville returns; Dollhouse finishes". TV by the Numbers. Retrieved February 6, 2011. 
  133. ^ a b c David Lambert (June 17, 2010). "Final (Earlier!) Release Date and Extras for The Complete 9th Season on DVD and Blu-ray". TVShowsOnDVD.com. Retrieved June 17, 2010. 
  134. ^ "Smallville writers respond". Twitter. February 19, 2010. Retrieved March 9, 2010. 
  135. ^ Seidman, Robert (February 6, 2010). "TV Ratings: CBS Wins Friday Again; Two New Hours of Smallville Are Better than One for CW". TV by the Numbers. Retrieved March 28, 2010. 
  136. ^ Seidman, Robert (February 13, 2010). "TV Ratings: Vancouver Opening Ceremonies Average 34.5 32.6 Million Viewers". TV by the Numbers. Retrieved March 28, 2010. 
  137. ^ Seidman, Robert (February 20, 2010). "TV Ratings: Olympics on NBC Crushes Competition; Smallville Steady". TV by the Numbers. Retrieved March 28, 2010. 
  138. ^ Seidman, Robert (February 27, 2010). "TV Ratings: Olympics Easily Skates To Victory; Smallville Up Slightly". TV by the Numbers. Retrieved March 28, 2010. 
  139. ^ "Friday Broadcast Finals: "Smallville" Rises". Tvbythenumbers.com.com. April 5, 2010. Retrieved April 5, 2010. 
  140. ^ Seidman, Robert (April 10, 2010). "TV Ratings: As Expected "Ghost Whisperer" and "Medium" Rebound as "Miami Medical" Falls, But...". TV by the Numbers. Retrieved February 7, 2011. 
  141. ^ Seidman, Robert (April 17, 2010). "TV Ratings: The Food Revolution Continues, Weakly; Miami Medical, Smallville Fall". TV by the Numbers. Retrieved February 7, 2011. 
  142. ^ Gorman, Bill (April 24, 2010). "TV Ratings: Dateline Leads NBC Win, As Food Revolution Ends Without A Bang". TV by the Numbers. Retrieved February 7, 2011. 
  143. ^ ""Smallville" & "Miami Medical" Adjusted Down in Friday Finals – TV Ratings, Nielsen Ratings, Television Show Ratings". TVbytheNumbers.com. 2010-05-03. Retrieved 2010-05-19. 
  144. ^ Seidman, Robert (May 8, 2010). "TV Ratings: Friday Night Lights Returns Quietly; "Primetime: What Would You Do?" Leads ABC". TV by the Numbers. Retrieved February 7, 2011. 
  145. ^ Seidman, Robert (May 15, 2010). "TV Ratings: Primetime: What Would You Do?, 20/20" Pace ABC To Win; "Smallville" Up". TV by the Numbers. Retrieved February 7, 2011. 
  146. ^ "MSN Episode Guide". MSN. Retrieved September 5, 2009. 
  147. ^ "Shows A-Z – smallville on cw". TheFutonCritic.com. Retrieved 2010-05-19. 
  148. ^ Gorman, Bill (September 27, 2010). "Friday Finals: Supernatural Up; Dateline Down". TV by the Numbers. Retrieved September 27, 2010. 
  149. ^ Seidman, Robert (October 5, 2010). "Friday Finals: No Changes With 18–49 Ratings for Originals". TV by the Numbers. Retrieved October 5, 2010. 
  150. ^ Gorman, Bill (October 11, 2010). "Friday Final Ratings: Dateline, Outlaw, Good Guys, Supernatural Adjusted Down". TV by the Numbers. Retrieved October 12, 2010. 
  151. ^ "Smallville writers respond". Twitter. February 19, 2010. Retrieved March 9, 2010. 
  152. ^ David Lambert (June 17, 2010). "Final (Earlier!) Release Date and Extras for The Complete 9th Season on DVD and Blu-ray". TVShowsOnDVD.com. Retrieved June 17, 2010. 
  153. ^ Seidman, Robert (October 18, 2010). "Friday Final Ratings: Medium Adjusted Down, Smallville, Supernatural Hold Preliminary Ratings". TV by the Numbers. Retrieved October 19, 2010. 
  154. ^ Gorman, Bill (October 25, 2010). "Friday Final Ratings: Smallville Adjusted Up; CSI:NY, Dateline Adjusted Down". TV by the Numbers. Retrieved October 25, 2010. 
  155. ^ Seidman, Robert (November 1, 2010). "Friday Final Ratings: The Great Pumpkin Rises". TV by the Numbers. Retrieved November 2, 2010. 
  156. ^ Gorman, Bill (November 8, 2010). "Friday Final Ratings: What Would You Do?, 20/20, Blue Bloods Adjusted Up". TV by the Numbers. Retrieved November 8, 2010. 
  157. ^ Seidman, Robert (November 15, 2010). "Friday Final Ratings: 20/20 Down a Tenth; Smallville Still Rocked w/Teri Hatcher". TV by the Numbers. Retrieved November 15, 2010. 
  158. ^ Seidman, Robert (November 22, 2010). "Friday Final Ratings: ‘CSI: NY’ Adjusted Down; ‘School Pride’ Adjusted Up". TV by the Numbers. Retrieved November 23, 2010. 
  159. ^ Gorman, Bill (December 6, 2010). "Friday Final Ratings: No Adjustments For ‘Smallville,’ ‘Supernatural,’ Or Any Other Shows". TV by the Numbers. Retrieved December 6, 2010. 
  160. ^ Seidman, Robert (December 13, 2010). "Friday Final Ratings: 'Supernanny,' 'Primetime,' Adjusted Up; '20/20' Adjusted Down; No Changes for ‘Smallville,’ ‘Supernatural,’ & Others". TV by the Numbers. Retrieved December 14, 2010. 
  161. ^ Seidman, Gorman (February 7, 2011). "Friday Finals: No Adjustments for 'Fringe,' 'Supernatural,' 'Smallville' or Any Other Show's 18–49 Ratings". TV by the Numbers. Retrieved February 8, 2011. 
  162. ^ Bill Gorman (February 12, 2011). "Updated TV Ratings Friday: 'Fringe' Falls Further, 'Smallville,' 'Supernatural,' Down; 'The Defenders,' 'CSI:NY' Hit Lows". TV By The Numbers. Retrieved February 12, 2011. 
  163. ^ Seidman, Robert (February 22, 2011). "Friday Final Ratings: 'Blue Bloods' Falls; No Adjustments for 'Fringe,' 'Smallville' and 'Supernatural". TV by the Numbers. Retrieved February 22, 2011. 
  164. ^ Gorman, Bill (February 28, 2011). "Friday Final Ratings: 'CSI:NY' Adjusted Up; No Adjustments For 'Fringe,' 'Supernatural,' 'Smallville'". TV by the Numbers. Retrieved February 28, 2011. 
  165. ^ Seidman, Robert (March 7, 2011). "Friday Final Ratings: 'Smallville' Adjusted Down, 20/20 Adjusted Up". TV by the Numbers. Retrieved March 8, 2011. 
  166. ^ Seidman, Robert (April 11, 2011). "Friday Final Ratings: 'Fringe,' 'Chaos' and 'Kitchen Nightmares' Adjusted Up". TV by the Numbers. Retrieved April 19, 2011. 
  167. ^ Seidman, Robert (April 25, 2011). "Friday Final Ratings: 'Smallville' Adjusted Up; 'Fringe' Stays at Series Low; 'Friday Night Lights' Adjusted Down". TV by the Numbers. Retrieved April 25, 2011. 
  168. ^ Gorman, Bill (May 2, 2011). "Friday Final Ratings: 'Friday Night Lights,' Two Wedding Shows Adjusted Up; No Adjustments For 'Fringe,' 'Smallville,' 'Supernatural'". TV by the Numbers. Retrieved May 2, 2011. 
  169. ^ Gorman, Bill (May 9, 2011). "Friday Final Ratings: 'Supernatural,' 'CSI:NY' Adjusted Up, No Adjustments To 'Fringe'". TV by the Numbers. Retrieved May 9, 2011. 
  170. ^ Seidman, Robert (May 16, 2011). >Twitter "Friday Final Ratings: 'CSI:NY,' 'Blue Bloods,' 'Friday Night Lights,' and 'Kitchen Nightmares Adjusted Up, No Adjustments To 'Smallville'". TV by the Numbers. Retrieved May 16, 2011. 
  171. ^ Gunderson, Seth (2001-11-05). "Smallville, Kansas. The biggest little town you've ever seen.". The Trades. Retrieved 2007-05-22. 
  172. ^ Associated Press (2002-05-30), "Nielsen Ratings", St. Paul Pioneer Press (Saint Paul, Minnesota): B6, (unknown ID) 0205290272 
  173. ^ a b "How did your favorite show rate? (2001–02)". USA Today. May 28, 2002. Retrieved May 25, 2007. 
  174. ^ "WB is getting its mojo back". Medialifemagazine.com. 2002-09-26. Retrieved 2010-05-19. 
  175. ^ TV Listings for - May 20, 2003 - TV Tango
  176. ^ a b "2002–03 Ratings". Retrieved May 25, 2007. 
  177. ^ TV Listings for - October 1, 2003 - TV Tango
  178. ^ "Weekly Program Rankings". ABC Medianet. May 25, 2004. Retrieved March 28, 2009. 
  179. ^ a b "2003–04 Ratings". ABC Medianet. Archived from the original on September 30, 2007. Retrieved May 25, 2007. 
  180. ^ "Weekly Program Rankings". ABC Medianet. September 29, 2004. Retrieved March 28, 2009. 
  181. ^ "Weekly Program Rankings". ABC Medianet. May 24, 2005. Retrieved March 28, 2009. 
  182. ^ a b "2004–05 Primetime Wrap". Hollywood Reporter. May 27, 2005. Archived from the original on September 30, 2007. Retrieved May 25, 2007. 
  183. ^ "Weekly Program Rankings". ABC Medianet. October 4, 2005. Retrieved March 28, 2009. 
  184. ^ "Weekly Program Rankings". ABC Medianet. May 16, 2006. Retrieved March 28, 2009. 
  185. ^ a b "Series". The Hollywood Reporter. May 26, 2006. Archived from the original on May 19, 2007. Retrieved May 25, 2007. 
  186. ^ "Weekly Program Rankings". ABC Medianet. 2006-10-03. Retrieved March 28, 2009. 
  187. ^ "Weekly Program Rankings". ABC Medianet. 2007-05-22. Retrieved March 28, 2009. 
  188. ^ a b "2006–07 primetime wrap". The Hollywood Reporter. May 25, 2007. Archived from the original on May 28, 2007. Retrieved May 25, 2007. 
  189. ^ "Weekly Program Rankings". ABC Medianet. October 2, 2007. Retrieved March 28, 2009. 
  190. ^ "Weekly Program Rankings". ABC Medianet. May 20, 2008. Retrieved March 28, 2009. 
  191. ^ a b "Weekly Program Rankings". ABC Medianet. May 20, 2008. Retrieved March 28, 2009. 
  192. ^ Gorman, Bill (September 23, 2008). "Top CW Primetime Shows, September 15–21". TV by the Numbers. Retrieved November 22, 2008. 
  193. ^ Seidman, Robert (May 19, 2009). "Top CW Primetime Shows, May 11–17, 2009". TV by the Numbers. Retrieved May 20, 2009. 
  194. ^ a b "Weekly Program Rankings". ABC Medianet. May 19, 2008. Retrieved May 20, 2009. 
  195. ^ "CW Premiere Plan Features Tree Hill Time Swap, Smallville Delay". TVGuide.com. Retrieved June 17, 2009. 
  196. ^ Gorman, Bill (October 12, 2009). "Dollhouse Premiere 18–49 Rating Increases To A 1.5 Via DVR; Hopeful or Futile?". TV by the Numbers. Retrieved October 20, 2009. 
  197. ^ Paul Millar (May 16, 2010). "2.5m watch 'Smallville' season finale". Digital Spy. Retrieved May 16, 2010. 
  198. ^ a b "Final 2009–10 Broadcast Primetime Show Average Viewership – TV Ratings, Nielsen Ratings, Television Show Ratings". TVbytheNumbers.com. Retrieved 2010-06-16. 
  199. ^ http://blog.cwtv.com/2010/06/30/the-cw-network-announces-fall-premiere-dates-2/
  200. ^ Gorman, Bill (September 27, 2010). "Friday Finals: Supernatural Up; Dateline Down". TV by the Numbers. Retrieved September 27, 2010. 
  201. ^ Seidman, Robert (2011-02-07). "'Smallville' Wraps Its Ten-Year Run With a Two-Hour Series Finale Event on Friday, May 13 on The CW". TVbytheNumbers.Zap2It.com. Retrieved 2011-02-07. 
  202. ^ Seidman, Robert (May 16, 2011). >Twitter "Friday Final Ratings: 'CSI:NY,' 'Blue Bloods,' 'Friday Night Lights,' and 'Kitchen Nightmares Adjusted Up, No Adjustments To 'Smallville'". TV by the Numbers. Retrieved May 16, 2011. 
  203. ^ "2010–11 Season Broadcast Primetime Show Viewership Averages". Tvbythenumbers.com. June 1, 2011. Retrieved June 1, 2011. 
  204. ^ Gorman, Bill (June 13, 2011). "'Modern Family' Tops DVR Ratings Gain For The 2010–11 Season; 'Fringe' Has Biggest % Increase By DVR". TV by the Numbers. Retrieved June 20, 2011. 
  205. ^ "Season Five (HD-DVD)". TVShowsOnDVD.com. Retrieved March 28, 2010. 
  206. ^ "Season Six (HD-DVD)". TVShowsOnDVD.com. Retrieved March 28, 2010. 
  207. ^ DVD extras noted on the back of each season's box.
  208. ^ "Season 1 (Region 1)". TVShowsOnDVD.com. Retrieved March 22, 2009. 
  209. ^ "Season 1 (Region 2)". Amazon France. Retrieved December 13, 2006. 
  210. ^ "Season 1 (Region 4)". JB HI-FI online. Retrieved January 12, 2007. 
  211. ^ "Season 2 (Region 1)". TVShowsOnDVD.com. Retrieved March 22, 2009. 
  212. ^ "Season 2 (Region 2)". Amazon France. Retrieved December 13, 2006. 
  213. ^ "Season 2 (Region 4)". JB HI-FI online. Retrieved July 12, 2009. 
  214. ^ "Season 3 (Region 1)". TVShowsOnDVD.com. Retrieved March 22, 2009. 
  215. ^ "Season 3 (Region 2)". Amazon France. Retrieved December 13, 2006. 
  216. ^ "Season 3 (Region 4)". JB HI-FI online. Retrieved July 12, 2009. 
  217. ^ "Season 4 (Region 1)". TVShowsOnDVD.com. Retrieved March 22, 2009. 
  218. ^ "Season 4 (Region 2)". Amazon France. Retrieved December 13, 2006. 
  219. ^ "Season 4 (Region 4)". JB HI-FI online. Retrieved July 12, 2009. 
  220. ^ "Season 5 (Region 1)". TVShowsOnDVD.com. Retrieved March 22, 2009. 
  221. ^ "Season 5 (Region 2)". Amazon France. Retrieved December 13, 2006. 
  222. ^ "Season 5 (Region 4)". Ezydvd. Retrieved January 12, 2007. 
  223. ^ David Lambert (May 23, 2007). "Smallville ;— Clark's secret is out: 6th Season Street date, costs, and extras!". TVShowsOnDVD.com. Retrieved July 12, 2009. 
  224. ^ "Season 6 (Region 2)". Amazon. Retrieved August 15, 2007. 
  225. ^ "Season 6 (Region 4)". Ezydvd. Retrieved October 18, 2009. 
  226. ^ David Lambert (May 21, 2008). "Smallville ;— Release Date, Package Art & Extras for 7th Season DVDs and Blu-ray Discs!". TVShowsOnDVD.com. Retrieved May 21, 2008. 
  227. ^ "Smallville season 7 (Region 2)". Amazon.uk. Retrieved March 22, 2009. 
  228. ^ "Season 7 (Region 4)". Ezydvd. Retrieved December 30, 2008. 
  229. ^ David Lambert (June 3, 2009). "DVD & Blu-ray Official 8th Season Announcement: Extras, 3D Box Art & August Date". TVShowsOnDVD.com. Retrieved June 3, 2009. 
  230. ^ "DVD Official 8th Season (Region 2)". Amazon.uk. Retrieved March 22, 2009. 
  231. ^ "Smallville — The Complete 8th Season (6 Disc Set)". EzyDVD. Retrieved February 16, 2010. 
  232. ^ "Smallville Complete Ninth Season DVD (Region 2)". amazon.uk. 
  233. ^ "Smallville — The Complete 9th Season (6 Disc Set)". EzyDVD. Retrieved May 16, 2011. 
  234. ^ a b c "Smallville – Finalized Date, Bonus Items, Packaging for Complete Series and The 10th Season Sets". tvbythenumbers.com. 
  235. ^ "Smallville Complete Tenth Season DVD (Region 2)". amazon.uk. 
  236. ^ "Smallville - Season 10 DVD". JB Hi-Fi. Retrieved March 12, 2012. 
  237. ^ "Smallville – Season 1–10 Complete [DVD]". amazon.uk. 
  238. ^ "Smallville — The Complete Sixth Season — Blu-ray". TVShowsOnDVD.com. Retrieved March 22, 2009. 
  239. ^ "Smallville: Season 6 (Blu-ray)". Amazon.ca. Retrieved November 11, 2009. 
  240. ^ "Smallville — The Complete Sixth Season [Blu-ray] (2006)". Amazon.co.uk. Retrieved November 11, 2009. 
  241. ^ "Smallville — The Complete 6th Season (4 Disc Set) (Blu-ray)". ezydvd. Retrieved November 11, 2009. 
  242. ^ "Smallville — The Complete Seventh Season — Blu-ray". TVShowsOnDVD.com. Retrieved March 22, 2009. 
  243. ^ "Smallville — The Complete Seventh Season (Blu-ray)". Amazon.co.uk. Retrieved November 11, 2009. 
  244. ^ "Smallville — The Complete 7th Season (3 Disc Set) (Blu-ray)". ezydvd. Retrieved November 11, 2009. 
  245. ^ "Smallville — The Complete Eighth Season — Blu-ray". TVShowsOnDVD.com. Retrieved March 28, 2010. 
  246. ^ "Smallville — The Complete Eighth Season [Blu-ray] (2009)". Amazon.co.uk. Retrieved November 11, 2009. 
  247. ^ "Smallville — The Complete 8th Season (4 Disc Set) (Blu-ray)". ezydvd. Retrieved March 28, 2010. 
  248. ^ "Smallville — The Complete Ninth Season [Blu-ray] (2010)". Amazon.co.uk. 
  249. ^ "Smallville — The Complete 9th Season (6 Disc Set)". JB Hi-Fi. 
  250. ^ "Smallville — The Complete Tenth Season [Blu-ray] (2011) (Region Free)". Amazon.co.uk. 
  251. ^ "Smallville - Season 10 Blu-ray". JB Hi-Fi. Retrieved March 12, 2012. 

External links[edit]